Regional Weather Roundup
Issued by NWS

Home | Current Version | Previous Version | Graphics & Text | Print | Product List | Glossary On
Versions: 1 2 3 4 5 6 7 8 9 10 11 12 13 14 15 16 17 18 19 20 21 22 23 24 25 26 27 28 29 30 31 32 33 34 35 36 37 38 39 40 41 42 43 44 45 46 47 48 49 50
000
ASUS45 KABQ 281901
RWRNM
NEW MEXICO REGIONAL WEATHER ROUNDUP
NATIONAL WEATHER SERVICE ALBUQUERQUE NM
100 PM MDT SAT MAY 28 2016

NOTE: "FAIR" MEANS FEW OR NO CLOUDS BELOW 12,000 FEET AGL WITH NO
       SIGNIFICANT WEATHER OR OBSTRUCTIONS TO VISION.

      THIS PRODUCT IS RELEASED AS TWO VERSIONS.  ONE VERSION NEAR
      THE TOP OF THE HOUR CONTAINING PRELIMINARY DATA FROM ALBUQUERQUE
      AND OTHER STATIONS.  A FINAL VERSION WITH ADDITIONAL DATA IS
      ISSUED ABOUT 10 MINUTES AFTER THE HOUR.

NMZ501-503-504-510>518-282000-
NORTHWEST PLATEAU/NORTHCENTRAL MOUNTAINS

CITY           SKY/WX    TMP DP  RH WIND       PRES   REMARKS
FARMINGTON     FAIR      72  25  17 CALM      30.07F
SANTA FE       FAIR      75  17  11 SW13G22   30.11F
TAOS           PTSUNNY   66  27  22 W9G21     30.16F

$$
NMZ402-403-502-505>509-282000-
WESTCENTRAL MOUNTAINS/SOUTHWEST MOUNTAINS

CITY           SKY/WX    TMP DP  RH WIND       PRES   REMARKS
GALLUP         FAIR      72  24  16 VRB5      30.11F
GRANTS         PTSUNNY   70  20  15 S10       30.14F
SILVER CITY      N/A     77  16  10 SE12G28   30.09F

$$
NMZ407-409-411-412-282000-
SOUTHERN DESERTS

CITY           SKY/WX    TMP DP  RH WIND       PRES   REMARKS
LORDSBURG      FAIR      82  21  10 SE9G18    29.99F
DEMING         FAIR      83  20   9 VRB5G17   30.00F
HOLLOMAN AFB   FAIR      83  16   8 S15       30.00F
ALAMOGORDO     FAIR      82  18   9 S14G21    30.02F
T OR C         FAIR      80  18  10 NE6       30.03F

$$
NMZ519>523-282000-
CENTRAL VALLEYS/CENTRAL HIGHLANDS

CITY           SKY/WX    TMP DP  RH WIND       PRES   REMARKS
ALBUQUERQUE    FAIR      76  23  14 S8        30.08F
DOUBLE EAGLE   MOSUNNY   73  25  16 SE9       30.11F
CLINES CORNERS FAIR      69  23  17 SW10G20   30.15F
BELEN          FAIR      77  22  13 E3        30.07F
SOCORRO        NOT AVBL

$$
NMZ524>526-539-540-282000-
SOUTHCENTRAL MOUNTAINS

CITY           SKY/WX    TMP DP  RH WIND       PRES   REMARKS
RUIDOSO        NOT AVBL

$$
NMZ527>531-282000-
NORTHEAST HIGHLANDS/NORTHEAST PLAINS

CITY           SKY/WX    TMP DP  RH WIND       PRES   REMARKS
LAS VEGAS      FAIR      70  24  17 S22G31    30.13F
RATON          FAIR      68  29  23 SE9       30.09F
CLAYTON        FAIR      75  40  28 S16G30    30.06F

$$
NMZ532>537-282000-
EASTCENTRAL PLAINS

CITY           SKY/WX    TMP DP  RH WIND       PRES   REMARKS
TUCUMCARI      FAIR      81  34  18 SE6       30.02F
CANNON AFB     FAIR      77  41  27 S9        30.05F
CLOVIS AIRPORT FAIR      75  41  29 SE7       30.06F

$$
NMZ028-029-538-282000-
SOUTHEAST PLAINS

CITY           SKY/WX    TMP DP  RH WIND       PRES   REMARKS
ROSWELL        FAIR      82  32  16 SE6       30.01F
ARTESIA        FAIR      82  34  17 SE9       30.00F
CARLSBAD       FAIR      84  26  12 VRB3      29.97F
HOBBS          SUNNY     86  21   9 SE15G23   30.01F


$$



USA.gov is the U.S. government's official web portal to all federal, state and local government web resources and services.